Regional Weather Roundup
Issued by NWS

Home | Current Version | Previous Version | Text Only | Print | Product List | Glossary On
Versions: 1 2 3 4 5 6 7 8 9 10 11 12 13 14 15 16 17 18 19 20 21 22 23 24 25 26 27 28 29 30 31 32 33 34 35 36 37 38 39 40 41 42 43 44 45 46 47 48 49 50
000
ASUS45 KREV 281310
RWRNV
NEVADA REGIONAL WEATHER ROUNDUP
NATIONAL WEATHER SERVICE RENO NV
600 AM PDT SAT MAY 28 2016

NOTE: "FAIR" INDICATES FEW OR NO CLOUDS BELOW 12,000 FEET WITH NO
SIGNIFICANT WEATHER AND/OR OBSTRUCTIONS TO VISIBILITY.

NVZ001-003-004-281400-
WESTERN NEVADA

CITY           SKY/WX    TMP DP  RH WIND       PRES   REMARKS
RENO           MOCLDY    49  35  58 W3        30.03R
CARSON CITY    FAIR      45  37  76 CALM      30.03S
MINDEN         FAIR      37  36  93 CALM      30.03R
FALLON         PTCLDY    45  29  53 SW6       29.99R
LOVELOCK       CLEAR     51  20  29 N8        30.00R
HAWTHORNE      CLEAR     55  32  41 NW10      29.99
$$

NVZ002-CAZ072-073-281400-
NORTHERN AND CENTRAL SIERRA

CITY           SKY/WX    TMP DP  RH WIND       PRES   REMARKS
TRUCKEE        PTCLDY    34  32  93 CALM      30.06R
SQUAW VLY 8000 NOT AVBL
SUSANVILLE     CLEAR     39  34  81 W5        30.04R
BLUE CANYON    PTCLDY    49  33  54 NE5       29.98S
MAMMOTH LAKES  FAIR      41  35  77 W7        30.08S
BRIDGEPORT     FAIR      34  26  72 CALM      30.06S
$$

NVZ030-031-036-281400-
NORTHERN NEVADA

CITY           SKY/WX    TMP DP  RH WIND       PRES   REMARKS
ELKO           CLEAR     41  35  79 CALM      30.06R
WINNEMUCCA     CLEAR     35  21  56 W7        30.04R
WENDOVER       CLOUDY    54  36  50 CALM      30.03R
$$

NVZ035-037-281400-
CENTRAL NEVADA

CITY           SKY/WX    TMP DP  RH WIND       PRES   REMARKS
ELY            PTCLDY    37  31  78 S5        30.08R
EUREKA           N/A     37  33  85 S7        30.06R
$$

NVZ013-014-281400-
SOUTH CENTRAL NEVADA

CITY           SKY/WX    TMP DP  RH WIND       PRES   REMARKS
TONOPAH        PTCLDY    49  32  52 N10       30.00R
$$

NVZ017-020-022-281400-
SOUTHERN NEVADA

CITY           SKY/WX    TMP DP  RH WIND       PRES   REMARKS
LAS VEGAS      PTCLDY    71  32  23 W5        29.78R
N. LAS VEGAS   CLEAR     66  33  29 N8        29.82R
NELLIS AFB     CLEAR     68  31  25 CALM      29.81R
HENDERSON      CLEAR     67  36  31 S14       29.85R
MERCURY        PTCLDY    59  28  30 CALM      29.87R
$$



USA.gov is the U.S. government's official web portal to all federal, state and local government web resources and services.